Home > Weather > MD of Lunenburg > Past weeks

Flag for Canada Weather for the Past 2 Weeks in MD of Lunenburg, Nova Scotia, Canada

Now
45 °F

Quite cool.


Feels Like: 40 °F
Forecast: 31 / 55 °F
Wind: 8 mph from South

Location: McNabs Island - AUT

Current Time: Apr 30, 2016 at 1:06:28 PM

Latest Report: Apr 30, 2016 at 12:00 PM


Visibility: N/A

Pressure: 30.20 "Hg

Humidity: 70%

Dew Point: 36 °F

Location of MD of LunenburgLocation

Historic Weather in MD of Lunenburg — Graph

°F

MD of Lunenburg Temperature Yesterday

Maximum temperature yesterday: 47 °F (at 1:00 PM)
Minimum temperature yesterday: 30 °F (at 6:00 AM)
Average temperature yesterday: 38 °F

High & Low Weather Summary for the Past Weeks

 TemperatureHumidityPressure
High71 °F (Apr 22, 4:00 PM)100% (Apr 15, 11:00 PM)30.46 "Hg (Apr 15, 11:00 PM)
Low29 °F (Apr 19, 7:00 AM)26% (Apr 21, 5:00 PM)29.65 "Hg (Apr 21, 6:00 PM)
Average41 °F67%29.99 "Hg
* Reported Apr 15 11:00 AM — Apr 30 11:00 AM, MD of Lunenburg, Weather by CustomWeather, © 2016

Note: Actual official high and low records may vary slightly from our data, if they occured in-between our weather recording intervals... More about our weather records

Advertising

MD of Lunenburg Weather History for the Previous 24 Hours

Scroll right to see more
 ConditionsComfort  
Time TempWeatherWind HumidityBarometerVisibility
11:00 AM
Sat, Apr 30
49 °FCool.3 mph44%30.19 "HgN/A
10:00 AM45 °FCool.5 mph50%30.19 "HgN/A
9:00 AM42 °FQuite cool.3 mph67%30.20 "HgN/A
8:00 AM38 °FChilly.5 mph76%30.20 "HgN/A
7:00 AM36 °FChilly.7 mph78%30.19 "HgN/A
6:00 AM34 °FChilly.7 mph84%30.17 "HgN/A
5:00 AM34 °FChilly.7 mph73%30.16 "HgN/A
4:00 AM34 °FChilly.3 mph84%30.16 "HgN/A
3:00 AM35 °FChilly.6 mph85%30.14 "HgN/A
2:00 AM35 °FChilly.7 mph87%30.13 "HgN/A
1:00 AM35 °FChilly.3 mph85%30.13 "HgN/A
12:00 AM35 °FChilly.1 mph78%30.15 "HgN/A
11:00 PM
Fri, Apr 29
37 °FChilly.3 mph70%30.16 "HgN/A
10:00 PM35 °FChilly.2 mph69%30.16 "HgN/A
9:00 PM37 °FChilly.15 mph65%30.14 "HgN/A
8:00 PM39 °FChilly.15 mph57%30.11 "HgN/A
7:00 PM41 °FQuite cool.21 mph48%30.08 "HgN/A
6:00 PM44 °FQuite cool.22 mph43%30.07 "HgN/A
5:00 PM45 °FQuite cool.21 mph42%30.07 "HgN/A
4:00 PM43 °FQuite cool.20 mph54%30.08 "HgN/A
3:00 PM42 °FQuite cool.17 mph54%30.10 "HgN/A
2:00 PM45 °FCool.7 mph45%30.12 "HgN/A
1:00 PM47 °FCool.5 mph28%30.14 "HgN/A
Weather by CustomWeather, © 2016

See weather overviewHow to use our weather pages